Terminal Aerodrome Forecast
Issued by NWS

Home | Current Version | Previous Version | Text Only | Print | Product List | Glossary On
Versions: 1 2 3 4 5 6 7 8 9 10 11 12 13 14 15 16
000
FTUS42 TJSJ 060531
TAFNCM
TAF
TNCM 060531Z 0606/0706 08009KT P6SM VCSH SCT019
     FM061330 10015KT P6SM SCT020
     FM062300 08008KT P6SM FEW022=

USA.gov is the U.S. government's official web portal to all federal, state and local government web resources and services.